Flag for U.S.A. Weather past 2 weeks in Boston, Massachusetts, U.S.A.

Now
41 °F

Mostly cloudy.


Feels Like: 38 °F
Forecast: 39 / 44 °F
Wind: 5 mph from North

Location: Logan International Airport

Current Time: Mar 27, 2015 at 12:00:54 PM

Latest Report: Mar 27, 2015 at 10:54 AM


Visibility: 10 mi

Pressure: 29.73 "Hg

Humidity: 89%

Dew point: 38 °F

Location of BostonLocation

Historic Weather in Boston — Graph

°F

Boston temperature yesterday

Maximum temperature yesterday: 54 °F (at 12:54 PM)
Minimum temperature yesterday: 38 °F (at 12:54 AM)
Average temperature yesterday: 46 °F

Past Weeks' High & Low Weather Summary

 TemperatureHumidityPressure
High54 °F (Mar 26, 12:54 PM)100% (Mar 14, 12:02 PM)30.63 "Hg (Mar 14, 12:02 PM)
Low18 °F (Mar 23, 5:54 AM)20% (Mar 16, 3:54 PM)29.37 "Hg (Mar 17, 3:54 PM)
Average32 °F58%30.04 "Hg
* Reported Mar 12 10:54 AM — Mar 27 10:54 AM, Boston, Weather by CustomWeather, © 2015

Note: Actual official high and low records may vary slightly from our data, if they occured in-between our weather recording intervals... More about our weather records

Advertising

Boston weather history for previous 24 hours

 ConditionsComfort  
Time TempWeatherWind HumidityBarometerVisibility
10:54 AM
Fri, Mar 27
41 °FMostly cloudy.5 mph89%29.73 "Hg10 mi
9:54 AM40 °FLight rain. Mostly cloudy.5 mph89%29.73 "Hg10 mi
8:54 AM40 °FLight rain. Mostly cloudy.7 mph93%29.73 "Hg10 mi
7:54 AM40 °FLight rain. Fog.9 mph93%29.74 "Hg6 mi
6:54 AM40 °FLight rain. Mostly cloudy.9 mph93%29.72 "Hg7 mi
5:54 AM41 °FLight rain. Mostly cloudy.8 mph96%29.68 "Hg8 mi
4:54 AM41 °FLight rain. Overcast.7 mph93%29.68 "Hg10 mi
3:54 AM41 °FLight rain. Low clouds.8 mph96%29.65 "Hg10 mi
2:54 AM42 °FLight rain. Low clouds.12 mph96%29.65 "Hg3 mi
1:54 AM43 °FLight rain. Low clouds.10 mph97%29.65 "Hg3 mi
12:54 AM44 °FLow clouds.5 mph96%29.65 "Hg3 mi
11:54 PM
Thu, Mar 26
44 °FLight rain. Fog.10 mph96%29.64 "Hg3 mi
10:54 PM45 °FFog.9 mph97%29.67 "Hg3 mi
9:54 PM46 °FLight rain. Fog.10 mph96%29.65 "Hg1 mi
8:54 PM48 °FLight rain. Fog.9 mph96%29.65 "Hg1 mi
7:54 PM48 °FRain. Fog.6 mph96%29.64 "Hg1 mi
6:54 PM49 °FLight rain. Fog.5 mph97%29.64 "Hg1 mi
6:00 PM52 °FLight rain. Fog.7 mph94%29.66 "Hg2 mi
4:54 PM51 °FRain. Fog.No wind96%29.67 "Hg3 mi
3:54 PM51 °FMostly cloudy.10 mph92%29.70 "Hg8 mi
2:54 PM51 °FLight rain. Fog.12 mph92%29.73 "Hg2 mi
1:54 PM53 °FLight rain. Mostly cloudy.14 mph83%29.76 "Hg9 mi
12:54 PM54 °FMostly cloudy.12 mph72%29.81 "Hg10 mi
Weather by CustomWeather, © 2015

See weather overviewHow to use our weather pages